Location: Maddington
(51.2000°N, 1.9167°W)
Time: 11:11:58
(UTC+00:00)

NOSS 2-2 (E) - Pass Details

Date: 20 January 2021
Orbit: 465 x 1741 km, 63.3° (Epoch: 16 January)

Event Time Altitude Azimuth Distance (km) Brightness Sun altitude
Rises 20:07:19 0° 315° (NW) 2,960 7.8 -32.3°
Reaches altitude 10° 20:09:26 10° 322° (NW) 2,182 6.8 -32.6°
Enters shadow 20:11:34 26° 337° (NNW) 1,499 5.7 -32.9°
